Home   Weather   Kassel   Past weeks

Flag for Germany Past Weather in Kassel, Hesse, Germany — Yesterday and Last 2 Weeks

Now
57 °F

Sunny.


Feels Like: 54 °F
Forecast: 42 / 56 °F
Wind: 16 mph from Southeast

Location: Kassel / Calden

Current Time: Apr 30, 2017 at 2:57:54 pm

Latest Report: Apr 30, 2017 at 2:20 pm


Visibility: 10 mi

Pressure: 29.92 "Hg

Humidity: 41%

Dew Point: 34 °F

Location of KasselLocation

Past Weather in Kassel — Graph

°F

Kassel Temperature Yesterday

Maximum temperature yesterday: 48 °F (at 2:20 pm)
Minimum temperature yesterday: 39 °F (at 7:20 am)
Average temperature yesterday: 46 °F

High & Low Weather Summary for the Past Weeks

 TemperatureHumidityPressure
High57 °F (Apr 24, 4:20 pm)100% (Apr 15, 2:50 pm)30.60 "Hg (Apr 15, 2:50 pm)
Low25 °F (Apr 20, 5:20 am)37% (Apr 26, 5:20 pm)29.65 "Hg (Apr 25, 6:50 am)
Average43 °F65%30.09 "Hg
* Reported Apr 15 1:20 pm — Apr 30 1:50 pm, Kassel, Weather by CustomWeather, © 2017

Note: Actual official high and low records may vary slightly from our data, if they occured in-between our weather recording intervals... More about our weather records

Advertising

Kassel Weather History for the Previous 24 Hours

Scroll right to see more
 ConditionsComfort  
Time TempWeatherWind HumidityBarometerVisibility
1:50 pm
Sun, Apr 30
57 °FScattered clouds.18 mph41%29.95 "HgN/A
1:20 pm55 °FScattered clouds.15 mph41%29.95 "HgN/A
12:50 pm54 °FScattered clouds.16 mph47%29.95 "HgN/A
12:20 pm55 °FScattered clouds.12 mph47%29.98 "HgN/A
11:50 am54 °FPassing clouds.16 mph51%29.98 "HgN/A
11:20 am52 °FPassing clouds.15 mph50%30.01 "HgN/A
10:50 am52 °FClear.14 mph50%30.01 "HgN/A
10:20 am50 °FSunny.16 mph54%30.01 "Hg10 mi
9:50 am48 °FSunny.13 mph54%30.01 "Hg10 mi
9:20 am46 °FSunny.13 mph57%30.04 "Hg10 mi
8:50 am45 °FSunny.10 mph57%30.04 "Hg10 mi
8:20 am43 °FSunny.9 mph66%30.04 "Hg10 mi
7:50 am41 °FSunny.5 mph66%30.04 "Hg10 mi
7:20 am37 °FSunny.6 mph70%30.04 "Hg10 mi
7:50 pm
Sat, Apr 29
46 °FSunny.5 mph57%30.07 "Hg10 mi
7:20 pm48 °FScattered clouds.5 mph50%30.07 "HgN/A
6:50 pm48 °FBroken clouds.5 mph50%30.07 "HgN/A
6:20 pm48 °FPartly sunny.6 mph50%30.07 "HgN/A
5:50 pm48 °FPartly sunny.6 mph46%30.07 "HgN/A
5:20 pm48 °FBroken clouds.6 mph46%30.07 "HgN/A
4:50 pm48 °FBroken clouds.5 mph46%30.07 "HgN/A
4:20 pm48 °FBroken clouds.9 mph46%30.07 "HgN/A
3:50 pm48 °FBroken clouds.9 mph46%30.07 "HgN/A
3:20 pm48 °FPartly sunny.10 mph40%30.07 "HgN/A
2:20 pm48 °FBroken clouds.9 mph46%30.07 "HgN/A
Weather by CustomWeather, © 2017

See weather overviewHow to use our weather pages